"Pseudo-MPEC" for C2UH552

Created 2020 May 24 11:07:04 UT using Find_Orb

Click here for an explanation of pseudo-MPECs

 
 Astrometry: 
     C2UH552  C2020 04 26[e8(JCC1urrgnO=X2y*7?tTKM%Ro,7*LP2L/Jf*B8LjAiI-h-Db'F52
     C2UH552  C2020 04 27Rg/1?$rWAstrometry.Datp;*@[redacted;h=s:-nclick)VLF4F52
     C2UH552  C2020 04 27ESUTdu2\,tmIQb-qDuhq6vfheres,hEJh3JAiX,kh$?IKhfor3uKF52
     C2UH552  C2020 04 27Wq:)a6oZv]Z!%GexplanationKGj)SbNufnD76x%2J6]d?xTh2PKF52
     C2UH552  C2020 05 16FQQnVR^`_GhZg\YYsW^_[NvEHty6`*-5m!ly9,^:tr(W+a*=yCx'F52
     C2UH552  C2020 05 16sDOmwfS[(`qO;cNUofIC^QTjl^-E[+MT)![h/JI3yeP'tymCCROwF52
     C2UH552  C2020 05 16vA6)gqhnrp'S96oc`]c%3Dy38vVDK-@GCIho7\uc,VEGf/aILf6pF52
     C2UH552  C2020 05 16?#b;3,AALhOV3Alb*x?!D@AS'jYmZO2^8'qxH8K6WTFDu8-7'[FHF52
     C2UH552  C2020 05 22.20963 11 36 09.67 +02 30 11.7    ~5M5b 22.0 GVNEOCPG96
     C2UH552  C2020 05 22.21486 11 36 11.00 +02 30 11.5    ~5M5b 21.9 GVNEOCPG96
     C2UH552  C2020 05 22.22010 11 36 12.42 +02 30 11.5    ~5M5b 21.6 GVNEOCPG96
     C2UH552  C2020 05 22.22532 11 36 13.81 +02 30 10.6    ~5M5b       VNEOCPG96
     C2UH552  C2020 05 22.24270 11 36 18.33 +02 30 10.7    ~5M6b 21.3 GVNEOCPV06
     C2UH552  C2020 05 22.24666 11 36 19.38 +02 30 10.6    ~5M6b 21.6 GVNEOCPV06
     C2UH552  C2020 05 22.25063 11 36 20.44 +02 30 10.3    ~5M6b 21.5 GVNEOCPV06
     C2UH552  C2020 05 22.25459 11 36 21.50 +02 30 09.9    ~5M6b 21.5 GVNEOCPV06
     C2UH552  C2020 05 23.21610 11 40 46.23 +02 29 27.8    ~5N5q 22.3 GVNEOCPV06
     C2UH552  C2020 05 23.22086 11 40 47.52 +02 29 27.3    ~5N5q 22.1 GVNEOCPV06
     C2UH552  C2020 05 23.22561 11 40 48.82 +02 29 27.0    ~5N5q 22.7 GVNEOCPV06
     C2UH552  C2020 05 23.23036 11 40 50.07 +02 29 27.1    ~5N5q 21.9 GVNEOCPV06
     C2UH552 KC2020 05 24hMl!tP,dBg\u6NFL_s*P1kVHq7]q9%x_Le12P-yf(5:(b][^3FOCH21
     C2UH552 KC2020 05 24IZ`qMfI2luwW-'e,mmBbP^3s?OCBOW)*oI;xms+O^kB+g^[KHDH)H21
     C2UH552  C2020 05 24.16255 11 45 10.68 +02 28 20.7    ~5O4b 21.8 GVNEOCPV06
     C2UH552  C2020 05 24.16757 11 45 12.06 +02 28 20.4    ~5O4b 21.4 GVNEOCPV06
     C2UH552  C2020 05 24.17259 11 45 13.43 +02 28 19.6    ~5O4b 21.9 GVNEOCPV06
     C2UH552  C2020 05 24.17761 11 45 14.76 +02 28 19.5    ~5O4b 21.7 GVNEOCPV06

Station data:
(F52) Pan-STARRS 2, Haleakala  (N20.707384 W156.255910)  US/Hawaii. 1.8-m
   Ritchey-Chrétien + CCD.
(G96) Mt. Lemmon Survey  (N32.442754 W110.788720)  US/Arizona.  Observers T.
   A. Pruyne, B. M. Africano, E. J. Christensen, G. A. Farneth, D. C. Fuls,
   A. R. Gibbs, A. D. Grauer, H. Gröller, J. A. Johnson, R. A. Kowalski, S.
   M. Larson, G. J. Leonard, D. Rankin, R. L. Seaman, F. C. Shelly. 1.5-m
   reflector + 10K CCD.
(H21) Astronomical Research Observatory, Westfield  (N39.483057 W87.968270)
   US/Illinois. 0.76-m f/3.0 astrograph + CCD.
(V06) Catalina Sky Survey-Kuiper  (N32.416847 W110.732550)  US/Arizona.
   Observers T. A. Pruyne, B. M. Africano, E. J. Christensen, G. A. Farneth,
   D. C. Fuls, A. R. Gibbs, A. D. Grauer, H. Gröller, J. A. Johnson, R. A.
   Kowalski, S. M. Larson, G. J. Leonard, D. Rankin, R. L. Seaman, F. C.
   Shelly. 1.55-m reflector + CCD.

Orbital elements:  C2UH552
   Perihelion 2020 May 18.569772 +/- 0.00453 TT = 13:40:28 (JD 2458988.069772)
Epoch 2020 May 24.0 TT = JDT 2458993.5   Earth MOID: 0.1376   AutoNEOCP
M   1.45260143 +/- 0.006            (J2000 ecliptic)
n   0.26750283 +/- 0.000992         Peri.  356.27954 +/- 0.0042
a   2.38552399 +/- 0.0059           Node   228.43250 +/- 0.016
e   0.5194469 +/- 0.00109           Incl.    6.23086 +/- 0.007
P   3.68                   H 22.7   G  0.15   U  8.1  
q 1.14637090 +/- 0.00024    Q 3.62467707 +/- 0.0116
From 26 observations 2020 Apr. 26-May 24; mean residual 0".27
Residuals in arcseconds: 
200426 F52  .04+  .14-    200522 G96  .12-  .07+    200523 V06  .19+  .37-    
200427 F52  .39-  .13-    200522 G96  .47+  .25+    200523 V06  .16-  .03+    
200427 F52  .16+  .55+    200522 G96  .66+  .48-    200524 H21  .08-  .05-    
200427 F52  .20+  .26-    200522 V06  .42-  .20+    200524 H21  .21+  .21-    
200516 F52  .21-  .07-    200522 V06  .40-  .24+    200524 V06  .41-  .21+    
200516 F52  .22+  .03-    200522 V06  .28-  .08+    200524 V06  .03-  .35+    
200516 F52  .04+  .08+    200522 V06  .14-  .18-    200524 V06  .19+  .01-    
200516 F52  .22-  .05+    200523 V06  .46-  .16-    200524 V06  .19-  .33+    
200522 G96  .59+  .10+    200523 V06  .22-  .36-    

Ephemerides (geocentric):
Date (UTC) HH   RA              Dec         delta   r     elong  mag " sig PA
---- -- -- --  -------------   -----------  ------ ------ -----  --- ---- ---
2020 05 24 11  11 46 34.303   +02 28 09.80  .27833 1.1484 112.5 22.2 .059 173
2020 05 24 12  11 46 46.048   +02 28 05.86  .27833 1.1484 112.5 22.2 .061 172
2020 05 24 13  11 46 57.798   +02 28 01.88  .27833 1.1485 112.5 22.2 .063 171
2020 05 24 14  11 47 09.556   +02 27 57.85  .27833 1.1485 112.5 22.2 .066 170
2020 05 24 15  11 47 21.320   +02 27 53.76  .27834 1.1485 112.5 22.2 .068 169
2020 05 24 16  11 47 33.090   +02 27 49.63  .27834 1.1485 112.5 22.2 .070 169
2020 05 24 17  11 47 44.867   +02 27 45.44  .27834 1.1486 112.5 22.2 .072 168
2020 05 24 18  11 47 56.650   +02 27 41.20  .27834 1.1486 112.5 22.2 .074 167
2020 05 24 19  11 48 08.440   +02 27 36.92  .27835 1.1486 112.5 22.2 .076 167
2020 05 24 20  11 48 20.236   +02 27 32.58  .27835 1.1487 112.5 22.2 .079 166
2020 05 24 21  11 48 32.038   +02 27 28.19  .27835 1.1487 112.5 22.2 .081 165
2020 05 24 22  11 48 43.847   +02 27 23.75  .27836 1.1487 112.5 22.2 .083 165
2020 05 24 23  11 48 55.663   +02 27 19.26  .27836 1.1488 112.5 22.2 .085 164
2020 05 25 00  11 49 07.484   +02 27 14.72  .27836 1.1488 112.5 22.2 .088 164
2020 05 25 01  11 49 19.312   +02 27 10.13  .27837 1.1488 112.6 22.2 .090 163
2020 05 25 02  11 49 31.146   +02 27 05.48  .27837 1.1488 112.6 22.2 .092 163
2020 05 25 03  11 49 42.987   +02 27 00.79  .27838 1.1489 112.6 22.2 .095 162
2020 05 25 04  11 49 54.834   +02 26 56.04  .27838 1.1489 112.6 22.2 .097 162
2020 05 25 05  11 50 06.687   +02 26 51.25  .27839 1.1489 112.6 22.2 .099 161
2020 05 25 06  11 50 18.547   +02 26 46.40  .27839 1.1490 112.6 22.2 .102 161
2020 05 25 07  11 50 30.412   +02 26 41.50  .27840 1.1490 112.6 22.2 .104 160
2020 05 25 08  11 50 42.284   +02 26 36.55  .27840 1.1490 112.6 22.2 .107 160
2020 05 25 09  11 50 54.163   +02 26 31.55  .27841 1.1491 112.6 22.2 .109 160
2020 05 25 10  11 51 06.047   +02 26 26.50  .27841 1.1491 112.6 22.2 .112 159
2020 05 25 11  11 51 17.938   +02 26 21.40  .27842 1.1491 112.6 22.2 .114 159
2020 05 25 12  11 51 29.834   +02 26 16.25  .27842 1.1492 112.6 22.2 .117 159
2020 05 25 13  11 51 41.737   +02 26 11.04  .27843 1.1492 112.6 22.2 .119 158
2020 05 25 14  11 51 53.646   +02 26 05.79  .27844 1.1492 112.6 22.2 .122 158
2020 05 25 15  11 52 05.562   +02 26 00.48  .27844 1.1493 112.6 22.2 .124 157
2020 05 25 16  11 52 17.483   +02 25 55.12  .27845 1.1493 112.6 22.2 .127 157
2020 05 25 17  11 52 29.410   +02 25 49.71  .27846 1.1493 112.6 22.2 .130 157
2020 05 25 18  11 52 41.344   +02 25 44.26  .27846 1.1494 112.6 22.2 .132 156
2020 05 25 19  11 52 53.283   +02 25 38.74  .27847 1.1494 112.7 22.2 .135 156
2020 05 25 20  11 53 05.229   +02 25 33.18  .27848 1.1494 112.7 22.2 .137 156
2020 05 25 21  11 53 17.181   +02 25 27.57  .27848 1.1495 112.7 22.2 .140 156
2020 05 25 22  11 53 29.138   +02 25 21.91  .27849 1.1495 112.7 22.2 .143 155
2020 05 25 23  11 53 41.102   +02 25 16.19  .27850 1.1496 112.7 22.2 .146 155
2020 05 26 00  11 53 53.072   +02 25 10.42  .27851 1.1496 112.7 22.2 .148 155
2020 05 26 01  11 54 05.047   +02 25 04.61  .27852 1.1496 112.7 22.2 .151 154
2020 05 26 02  11 54 17.029   +02 24 58.74  .27852 1.1497 112.7 22.2 .154 154
2020 05 26 03  11 54 29.017   +02 24 52.82  .27853 1.1497 112.7 22.2 .157 154
2020 05 26 04  11 54 41.010   +02 24 46.85  .27854 1.1497 112.7 22.2 .159 154
2020 05 26 05  11 54 53.009   +02 24 40.82  .27855 1.1498 112.7 22.2 .162 153
2020 05 26 06  11 55 05.015   +02 24 34.75  .27856 1.1498 112.7 22.2 .165 153
2020 05 26 07  11 55 17.026   +02 24 28.62  .27857 1.1498 112.7 22.2 .168 153
2020 05 26 08  11 55 29.043   +02 24 22.45  .27858 1.1499 112.7 22.2 .171 153
2020 05 26 09  11 55 41.066   +02 24 16.22  .27859 1.1499 112.7 22.2 .174 152
2020 05 26 10  11 55 53.094   +02 24 09.94  .27860 1.1500 112.7 22.2 .176 152